When you browse on this site, cookies collect data to enhance your experience and personalize the content and advertising you see.
Visit our Privacy Policy to learn more. By continuing to use the site, you agree to this use of cookies and data.
  • Em Portugal
  • Lista de países
  • Para 7 dias
  • Temperatura da água
  • Mapa do tempo
  • Widgets de tempo
  • user-avatar
    Iniciar Sessão

    Previsão horária em Dashev

    Hoje, 12 Novembro, Terça-feira

    Tempo Temperatura Precipitação Vento Pressão Humidade
    00:00 +8°C° 0 mm 1 m/s 746 mmHg 81%
    01:00 +8°C° 0 mm 1 m/s 747 mmHg 82%
    02:00 +7°C° 0 mm 2 m/s 747 mmHg 84%
    03:00 +6°C° 0 mm 2 m/s 747 mmHg 84%
    04:00 +6°C° 0 mm 2 m/s 747 mmHg 85%
    05:00 +6°C° 0 mm 2 m/s 747 mmHg 85%
    06:00 +5°C° 0 mm 3 m/s 747 mmHg 84%
    07:00 +5°C° 0 mm 3 m/s 747 mmHg 84%
    08:00 +7°C° 0 mm 3 m/s 748 mmHg 83%
    09:00 +7°C° 0 mm 4 m/s 748 mmHg 76%
    10:00 +9°C° 0 mm 5 m/s 748 mmHg 70%
    11:00 +12°C° 0 mm 5 m/s 748 mmHg 63%
    12:00 +13°C° 0 mm 6 m/s 747 mmHg 60%
    13:00 +14°C° 0 mm 6 m/s 747 mmHg 58%
    14:00 +15°C° 0 mm 6 m/s 747 mmHg 55%
    15:00 +14°C° 0 mm 6 m/s 747 mmHg 59%
    16:00 +13°C° 0 mm 6 m/s 746 mmHg 63%
    17:00 +12°C° 0 mm 5 m/s 746 mmHg 67%
    18:00 +11°C° 0 mm 6 m/s 746 mmHg 68%
    19:00 +11°C° 0 mm 6 m/s 747 mmHg 70%
    20:00 +11°C° 0 mm 6 m/s 747 mmHg 71%
    21:00 +11°C° 0 mm 6 m/s 747 mmHg 72%
    22:00 +10°C° 0 mm 6 m/s 747 mmHg 74%
    23:00 +10°C° 0 mm 6 m/s 747 mmHg 75%

    Amanhã, 13 Novembro, Quarta-feira

    Tempo Temperatura Precipitação Vento Pressão Humidade
    00:00 +10°C° 0 mm 6 m/s 747 mmHg 77%
    01:00 +9°C° 0 mm 6 m/s 747 mmHg 79%
    02:00 +9°C° 0 mm 6 m/s 746 mmHg 81%
    03:00 +9°C° 0 mm 6 m/s 746 mmHg 82%
    04:00 +9°C° 0 mm 6 m/s 746 mmHg 83%
    05:00 +9°C° 0 mm 6 m/s 746 mmHg 84%
    06:00 +9°C° 0 mm 6 m/s 746 mmHg 82%
    07:00 +9°C° 0 mm 6 m/s 746 mmHg 80%
    08:00 +9°C° 0 mm 7 m/s 746 mmHg 78%
    09:00 +11°C° 0 mm 7 m/s 746 mmHg 69%
    10:00 +12°C° 0 mm 7 m/s 745 mmHg 61%
    11:00 +15°C° 0 mm 7 m/s 745 mmHg 53%
    12:00 +16°C° 0 mm 8 m/s 745 mmHg 49%
    13:00 +16°C° 0 mm 8 m/s 745 mmHg 46%
    14:00 +17°C° 0 mm 8 m/s 744 mmHg 42%
    15:00 +16°C° 0 mm 7 m/s 744 mmHg 45%
    16:00 +15°C° 0 mm 7 m/s 744 mmHg 48%
    17:00 +14°C° 0 mm 6 m/s 744 mmHg 50%
    18:00 +14°C° 0 mm 6 m/s 744 mmHg 52%
    19:00 +12°C° 0 mm 7 m/s 744 mmHg 54%
    20:00 +12°C° 0 mm 7 m/s 744 mmHg 56%
    21:00 +11°C° 0 mm 7 m/s 744 mmHg 57%
    22:00 +11°C° 0 mm 7 m/s 744 mmHg 57%
    23:00 +10°C° 0 mm 7 m/s 744 mmHg 58%

    Depois de amanhã, 14 Novembro, Quinta-feira

    Tempo Temperatura Precipitação Vento Pressão Humidade
    00:00 +10°C° 0 mm 6 m/s 744 mmHg 61%
    01:00 +9°C° 0 mm 6 m/s 744 mmHg 63%
    02:00 +9°C° 0 mm 6 m/s 744 mmHg 66%
    03:00 +8°C° 0 mm 6 m/s 744 mmHg 69%
    04:00 +8°C° 0 mm 5 m/s 744 mmHg 73%
    05:00 +7°C° 0 mm 5 m/s 744 mmHg 77%
    06:00 +7°C° 0 mm 5 m/s 744 mmHg 79%
    07:00 +7°C° 0 mm 5 m/s 744 mmHg 81%
    08:00 +7°C° 0 mm 5 m/s 745 mmHg 83%
    09:00 +8°C° 0 mm 6 m/s 745 mmHg 76%
    10:00 +9°C° 0 mm 6 m/s 745 mmHg 70%
    11:00 +11°C° 0 mm 6 m/s 745 mmHg 63%
    12:00 +11°C° 0 mm 6 m/s 744 mmHg 62%
    13:00 +11°C° 0 mm 6 m/s 744 mmHg 61%
    14:00 +11°C° 0 mm 6 m/s 744 mmHg 59%
    15:00 +12°C° 0 mm 5 m/s 744 mmHg 63%
    16:00 +11°C° 0 mm 4 m/s 744 mmHg 66%
    17:00 +10°C° 0 mm 3 m/s 744 mmHg 69%
    18:00 +10°C° 0 mm 4 m/s 744 mmHg 68%
    19:00 +10°C° 0 mm 4 m/s 744 mmHg 67%
    20:00 +10°C° 0 mm 4 m/s 744 mmHg 65%
    21:00 +8°C° 0 mm 4 m/s 744 mmHg 64%
    22:00 +8°C° 0 mm 4 m/s 745 mmHg 63%
    23:00 +7°C° 0 mm 4 m/s 745 mmHg 62%

    15 Novembro, Sexta-feira

    Tempo Temperatura Precipitação Vento Pressão Humidade
    00:00 +7°C° 0 mm 4 m/s 745 mmHg 61%
    01:00 +6°C° 0 mm 4 m/s 745 mmHg 61%
    02:00 +6°C° 0 mm 4 m/s 745 mmHg 60%
    03:00 +5°C° 0 mm 4 m/s 745 mmHg 62%
    04:00 +5°C° 0 mm 4 m/s 745 mmHg 64%
    05:00 +5°C° 0 mm 4 m/s 745 mmHg 66%
    06:00 +5°C° 0 mm 4 m/s 745 mmHg 67%
    07:00 +5°C° 0 mm 4 m/s 745 mmHg 69%
    08:00 +5°C° 0 mm 4 m/s 745 mmHg 70%
    09:00 +5°C° 0 mm 4 m/s 746 mmHg 68%
    10:00 +6°C° 0 mm 4 m/s 746 mmHg 66%
    11:00 +7°C° 0 mm 4 m/s 746 mmHg 65%
    12:00 +7°C° 0 mm 4 m/s 746 mmHg 64%
    13:00 +8°C° 0 mm 4 m/s 746 mmHg 63%
    14:00 +8°C° 0 mm 4 m/s 746 mmHg 62%
    15:00 +8°C° 0 mm 4 m/s 746 mmHg 65%
    16:00 +8°C° 0 mm 3 m/s 746 mmHg 68%
    17:00 +8°C° 0 mm 3 m/s 746 mmHg 72%
    18:00 +7°C° 0 mm 3 m/s 747 mmHg 74%
    19:00 +7°C° 0 mm 3 m/s 747 mmHg 76%
    20:00 +7°C° 0 mm 3 m/s 747 mmHg 78%
    21:00 +5°C° 0 mm 3 m/s 747 mmHg 81%
    22:00 +5°C° 0 mm 3 m/s 747 mmHg 84%
    23:00 +5°C° 0 mm 3 m/s 748 mmHg 86%

    16 Novembro, Sábado

    Tempo Temperatura Precipitação Vento Pressão Humidade
    00:00 +5°C° 0 mm 3 m/s 748 mmHg 87%
    01:00 +4°C° 0 mm 3 m/s 748 mmHg 89%
    02:00 +4°C° 0 mm 3 m/s 748 mmHg 90%
    03:00 +5°C° 0 mm 2 m/s 748 mmHg 90%
    04:00 +5°C° 0 mm 2 m/s 748 mmHg 90%
    05:00 +4°C° 0 mm 2 m/s 748 mmHg 90%
    06:00 +3°C° 0 mm 3 m/s 749 mmHg 89%
    07:00 +3°C° 0 mm 3 m/s 749 mmHg 88%
    08:00 +3°C° 0 mm 3 m/s 749 mmHg 87%
    09:00 +5°C° 0 mm 3 m/s 749 mmHg 80%
    10:00 +7°C° 0 mm 3 m/s 749 mmHg 74%
    11:00 +8°C° 0 mm 4 m/s 750 mmHg 67%
    12:00 +10°C° 0 mm 3 m/s 749 mmHg 64%
    13:00 +10°C° 0 mm 3 m/s 749 mmHg 61%
    14:00 +11°C° 0 mm 3 m/s 749 mmHg 59%
    15:00 +10°C° 0 mm 3 m/s 749 mmHg 63%
    16:00 +9°C° 0 mm 3 m/s 749 mmHg 68%
    17:00 +8°C° 0 mm 3 m/s 749 mmHg 73%
    18:00 +7°C° 0 mm 3 m/s 749 mmHg 75%
    19:00 +7°C° 0 mm 3 m/s 750 mmHg 78%
    20:00 +5°C° 0 mm 3 m/s 750 mmHg 81%
    21:00 +5°C° 0 mm 3 m/s 750 mmHg 84%
    22:00 +4°C° 0 mm 3 m/s 750 mmHg 87%
    23:00 +4°C° 0 mm 3 m/s 750 mmHg 90%

    17 Novembro, Domingo

    Tempo Temperatura Precipitação Vento Pressão Humidade
    00:00 +4°C° 0 mm 2 m/s 750 mmHg 91%
    01:00 +4°C° 0 mm 2 m/s 750 mmHg 92%
    02:00 +4°C° 0 mm 2 m/s 750 mmHg 93%
    03:00 +4°C° 0 mm 2 m/s 750 mmHg 93%
    04:00 +3°C° 0 mm 2 m/s 750 mmHg 94%
    05:00 +3°C° 0 mm 2 m/s 750 mmHg 94%
    06:00 +3°C° 0 mm 2 m/s 750 mmHg 94%
    07:00 +2°C° 0 mm 3 m/s 750 mmHg 94%
    08:00 +2°C° 0 mm 3 m/s 750 mmHg 93%
    09:00 +4°C° 0 mm 3 m/s 751 mmHg 84%
    10:00 +5°C° 0 mm 4 m/s 751 mmHg 75%
    11:00 +7°C° 0 mm 4 m/s 751 mmHg 66%
    12:00 +7°C° 0 mm 4 m/s 750 mmHg 63%
    13:00 +8°C° 0 mm 4 m/s 750 mmHg 59%
    14:00 +10°C° 0 mm 4 m/s 750 mmHg 56%
    15:00 +8°C° 0 mm 4 m/s 750 mmHg 60%
    16:00 +7°C° 0 mm 3 m/s 750 mmHg 63%
    17:00 +5°C° 0 mm 3 m/s 750 mmHg 67%
    18:00 +5°C° 0 mm 3 m/s 750 mmHg 70%
    19:00 +4°C° 0 mm 3 m/s 750 mmHg 72%
    20:00 +4°C° 0 mm 3 m/s 750 mmHg 75%
    21:00 +4°C° 0 mm 4 m/s 750 mmHg 77%
    22:00 +3°C° 0 mm 4 m/s 750 mmHg 80%
    23:00 +3°C° 0 mm 4 m/s 750 mmHg 82%
    Mostrar mais